[Date Prev][Date Next][Thread Prev][Thread Next] - [Date Index][Thread Index][Author Index]

2 Line ISS Keps 2-24



ISS
1 25544U 98067A   06055.05006248  .00009585  00000-0  70720-4 0  4106
2 25544 051.6435 049.3960 0008485 292.0642 112.0429 15.73776562415331
----
Via the sarex mailing list at AMSAT.ORG courtesy of AMSAT-NA.
To unsubscribe, send "unsubscribe sarex" to Majordomo@amsat.org



AMSAT Top AMSAT Home